Weather History for Casper, WY

Change the Weather History Date:

Thursday, November 14, 2013

  Actual Average Record
Temperature  
Mean Temperature 37 °F 34 °F  
Max Temperature 51 °F 46 °F 68 °F (1953)
Min Temperature 23 °F 22 °F -10 °F (1978)
Degree Days  
Heating Degree Days 28 31  
Month to date heating degree days 397 393  
Since 1 July heating degree days 1286 1292  
Cooling Degree Days 0 0  
Month to date cooling degree days 0 0  
Year to date cooling degree days 618 422  
Moisture  
Dew Point 25 °F    
Average Humidity 65    
Maximum Humidity 100    
Minimum Humidity 29    
Precipitation  
Precipitation T in 0.03 in 0.40 in (2006)
Month to date precipitation 0.01 0.41  
Year to date precipitation 13.71 11.68  
Snow  
Snow 0.00 in 0.30 in - ()
Month to date snowfall 0.1 4.6  
Since 1 July snowfall 21.3 13.8  
Since 1 September snowfall 21.3 13.8  
Snow Depth 0.00 in    
Sea Level Pressure  
Sea Level Pressure 29.95 in    
Wind  
Wind Speed 10 mph (WSW)    
Max Wind Speed 25 mph    
Max Gust Speed 30 mph    
Visibility 10 miles    
Events Rain    
T = Trace of Precipitation, MM = Missing Value Source: NWS Daily Summary

Daily Weather History Graph

Daily Weather History Graph

Search for Another Location

Airport:

Trip Planner

Search our weather history database for the weather conditions in past years. The results will help you decide how hot, cold, wet, or windy it might be!

Date:

Astronomy

Nov. 14, 2013 Rise Set
Actual Time 6:57 AM MST 4:43 PM MST
Civil Twilight 6:26 AM MST 5:13 PM MST
Nautical Twilight 5:52 AM MST 5:47 PM MST
Astronomical Twilight 5:18 AM MST 6:21 PM MST
Moon 3:09 PM MST (11/14) 3:51 AM MST (11/14)
Length of Visible Light 10h 46m
Length of Day
9h 46m
Waxing Gibbous, 92% of the Moon is Illuminated
Nov 14
Waxing Gibbous
Nov 17
Full
Nov 25
Last Quarter
Dec 2
New
Dec 9
First Quarter

Hourly Weather History & Observations

Time (MST) Temp. Windchill Dew Point Humidity Pressure Visibility Wind Dir Wind Speed Gust Speed Precip Events Conditions
12:53 AM 33.1 °F - 30.9 °F 92% 30.09 in 10.0 mi Calm Calm - N/A   Mostly Cloudy
1:20 AM 35.1 °F 29.3 °F 33.1 °F 92% 30.13 in 10.0 mi North 6.9 mph - N/A   Overcast
1:53 AM 36.0 °F 31.1 °F 33.1 °F 89% 30.09 in 10.0 mi North 5.8 mph - 0.00 in Rain Light Rain
2:53 AM 34.0 °F - 32.0 °F 92% 30.10 in 10.0 mi Calm Calm - 0.00 in   Mostly Cloudy
3:08 AM 34.0 °F - 32.0 °F 92% 30.13 in 10.0 mi Calm Calm - N/A   Mostly Cloudy
3:17 AM 34.0 °F - 30.9 °F 89% 30.13 in 10.0 mi Calm Calm - N/A   Scattered Clouds
3:53 AM 27.0 °F 23.0 °F 27.0 °F 100% 30.11 in 10.0 mi WNW 3.5 mph - N/A   Partly Cloudy
4:53 AM 25.0 °F 17.1 °F 24.1 °F 96% 30.14 in 10.0 mi WSW 6.9 mph - N/A   Scattered Clouds
5:53 AM 25.0 °F 19.3 °F 23.0 °F 92% 30.13 in 10.0 mi West 4.6 mph - N/A   Partly Cloudy
6:53 AM 27.0 °F 18.0 °F 26.1 °F 96% 30.08 in 10.0 mi SSW 9.2 mph - N/A   Scattered Clouds
7:53 AM 32.0 °F 23.6 °F 30.0 °F 92% 30.06 in 10.0 mi WSW 10.4 mph - N/A   Clear
8:53 AM 37.9 °F 28.5 °F 30.9 °F 76% 30.04 in 10.0 mi SW 17.3 mph - N/A   Clear
9:53 AM 43.0 °F 34.8 °F 28.9 °F 58% 30.00 in 10.0 mi SW 18.4 mph 25.3 mph N/A   Clear
10:53 AM 43.0 °F 34.0 °F 28.0 °F 56% 29.98 in 10.0 mi SW 21.9 mph 29.9 mph N/A   Clear
11:53 AM 46.0 °F 38.3 °F 26.1 °F 46% 29.94 in 10.0 mi SSW 20.7 mph 25.3 mph N/A   Clear
12:53 PM 48.0 °F - 25.0 °F 41% 29.89 in 10.0 mi SSW 20.7 mph 27.6 mph N/A   Clear
1:53 PM 50.0 °F - 21.0 °F 32% 29.84 in 10.0 mi SW 19.6 mph - N/A   Clear
2:53 PM 50.0 °F - 19.9 °F 31% 29.83 in 10.0 mi WSW 16.1 mph - N/A   Clear
3:53 PM 46.9 °F - 21.0 °F 36% 29.86 in 10.0 mi WSW 13.8 mph - N/A   Clear
4:53 PM 43.0 °F 38.2 °F 21.0 °F 42% 29.86 in 10.0 mi SW 8.1 mph - N/A   Clear
5:53 PM 41.0 °F 35.8 °F 21.0 °F 45% 29.86 in 10.0 mi West 8.1 mph - N/A   Clear
6:53 PM 43.0 °F - 19.0 °F 38% 29.83 in 10.0 mi Calm Calm - N/A   Clear
7:53 PM 42.1 °F 36.6 °F 23.0 °F 47% 29.80 in 10.0 mi SW 9.2 mph - N/A   Clear
8:53 PM 39.9 °F - 21.9 °F 49% 29.75 in 10.0 mi Calm Calm - N/A   Clear
9:53 PM 41.0 °F 38.0 °F 21.0 °F 45% 29.72 in 10.0 mi West 4.6 mph - N/A   Clear
10:53 PM 34.0 °F 28.0 °F 21.0 °F 59% 29.70 in 10.0 mi West 6.9 mph - N/A   Clear
11:53 PM 39.0 °F 32.3 °F 19.9 °F 46% 29.65 in 10.0 mi WSW 10.4 mph - N/A   Clear